Location: Colle Santa Colomba
(42.0333°N, 12.5667°E)
Time: 03:42:48
(UTC+00:00)

CENTAUR R/B - Pass Details

Date: 25 October 2021
Orbit: 728 x 1459 km, 63.4° (Epoch: 26 November)

Event Time Altitude Azimuth Distance (km) Brightness Sun altitude
Rises 19:04:14 0° 325° (NW) 4,083 6.4 -32.3°
Reaches altitude 10° 19:07:13 10° 335° (NNW) 3,223 5.6 -32.9°
Enters shadow 19:12:59 32° 21° (NNE) 2,143 4.1 -33.9°
